Location: Cheching
(60.0667°N, 164.2167°W)
Time: 01:51:55
(UTC+00:00)

DX 1 - Pass Details

Date: 25 January 2021
Orbit: 618 x 631 km, 98.5° (Epoch: 07 March)

Event Time Altitude Azimuth Distance (km) Brightness Sun altitude
Exits shadow 05:17:44 22° 129° (SE) 1,353 ? -17.4°
Drops below altitude 10° 05:19:55 10° 154° (SSE) 1,987 ? -17.6°
Sets 05:22:20 0° 166° (SSE) 2,888 ? -17.9°
